Creston
Sunday 3:15 PM
Temperature72° (72°/57°)
Dew Point54°
Relative Humidity53
%
Visibility10
mi
Pressure1023.4
mb
Wind DirectionSSE
150°
Wind Speed16
mph
(G23)
Precipitation Today0.00"

Last 30 Observations

Time PresWx Temp DP Feels RH% Vsby Pressure Ceiling Direction Speed 1h Precip
2:55 PM 70° 52° 53
%
10
mi
1023.7
mb
SE
140°
20
mph
0.00"
2:35 PM 70° 54° 56
%
10
mi
1024.1
mb
SSE
150°
14
mph
0.00"
2:15 PM 66° 54° 64
%
10
mi
1024.4
mb
9,500
ft
SSE
150°
14
mph
0.00"
1:55 PM 64° 52° 64
%
10
mi
1024.7
mb
7,500
ft
SSE
150°
11
mph
0.00"
1:35 PM 64° 54° 68
%
10
mi
1025.1
mb
5,000
ft
SSE
150°
14
mph
0.00"
1:15 PM 64° 54° 68
%
10
mi
1025.4
mb
4,900
ft
SE
140°
10
mph
0.00"
12:55 PM 63° 55° 77
%
7
mi
1025.4
mb
4,400
ft
SE
130°
10
mph
0.00"
12:35 PM 64° 52° 64
%
10
mi
1025.4
mb
4,800
ft
SSE
150°
11
mph
0.00"
12:15 PM 64° 52° 64
%
10
mi
1025.7
mb
5,000
ft
SE
140°
11
mph
0.00"
11:55 AM 64° 52° 64
%
10
mi
1025.7
mb
5,000
ft
SSE
150°
10
mph
0.00"
11:35 AM 64° 52° 64
%
10
mi
1025.7
mb
7,000
ft
SSE
150°
11
mph
0.00"
11:15 AM 64° 50° 60
%
10
mi
1025.7
mb
5,500
ft
SSE
150°
16
mph
0.00"
10:55 AM 66° 52° 60
%
10
mi
1025.7
mb
5,500
ft
SSE
160°
13
mph
0.00"
10:35 AM 64° 52° 64
%
10
mi
1025.7
mb
5,500
ft
SSE
160°
15
mph
0.00"
10:15 AM 64° 54° 68
%
10
mi
1025.7
mb
8,000
ft
SE
140°
14
mph
0.00"
9:55 AM 64° 54° 68
%
10
mi
1025.7
mb
8,500
ft
SE
140°
13
mph
0.00"
9:35 AM 64° 54° 68
%
10
mi
1025.7
mb
8,500
ft
SE
140°
16
mph
0.00"
9:15 AM 63° 54° 72
%
10
mi
1025.7
mb
8,500
ft
SE
140°
15
mph
0.00"
8:55 AM 63° 55° 77
%
10
mi
1025.7
mb
6,000
ft
ESE
120°
11
mph
0.00"
8:35 AM 63° 57° 83
%
10
mi
1026.1
mb
6,000
ft
ESE
120°
11
mph
0.00"
8:15 AM 61° 59° 94
%
10
mi
1025.4
mb
6,000
ft
ESE
110°
9
mph
0.00"
7:55 AM 61° 59° 94
%
10
mi
1025.4
mb
12,000
ft
ESE
110°
9
mph
0.00"
7:35 AM 61° 59° 94
%
10
mi
1025.4
mb
6,500
ft
ESE
120°
8
mph
0.00"
7:15 AM 61° 59° 94
%
10
mi
1025.4
mb
6,500
ft
ESE
110°
7
mph
0.00"
6:55 AM 59° 59° 100
%
10
mi
1025.1
mb
6,000
ft
ESE
120°
6
mph
0.00"
6:35 AM 59° 59° 100
%
10
mi
1025.1
mb
6,000
ft
Calm 0.00"
6:15 AM 57° 57° 100
%
10
mi
1024.7
mb
6,000
ft
E
80°
6
mph
0.00"
5:55 AM 57° 57° 100
%
10
mi
1024.4
mb
6,500
ft
E
90°
3
mph
0.00"
5:35 AM 57° 57° 100
%
10
mi
1024.4
mb
6,000
ft
ENE
70°
5
mph
0.00"
5:15 AM 57° 57° 100
%
10
mi
1024.4
mb
11,000
ft
Calm 0.00"